Craig, CO

3:01 PM MST on November 21, 2017 (GMT -0700)
Craig-Moffat

Weather History for KCAG - January, 2013

Change the Weather History Date:

Wednesday, January 2, 2013

  Actual Average Record
Temperature  
Mean Temperature -1 °F 15 °F  
Max Temperature 12 °F 29 °F 50 °F (2012)
Min Temperature -14 °F 1 °F -27 °F (2016)
Degree Days  
Heating Degree Days 66 50  
Month to date heating degree days 135 100  
Since 1 July heating degree days 3306 3656  
Cooling Degree Days 0 0  
Month to date cooling degree days 0 0  
Year to date cooling degree days 0 0  
Moisture  
Dew Point -7 °F    
Average Humidity 77    
Maximum Humidity 90    
Minimum Humidity 63    
Precipitation  
Precipitation T in 0.03 in 0.65 in (2017)
Month to date precipitation T 0.06  
Year to date precipitation T 0.06  
Sea Level Pressure  
Sea Level Pressure 30.44 in    
Wind  
Wind Speed 1 mph (SSW)    
Max Wind Speed 8 mph    
Max Gust Speed 10 mph    
Visibility 4 miles    
Events Snow    
T = Trace of Precipitation, MM = Missing Value Source: NWS Daily Summary

Daily Weather History Graph

Daily Weather History Graph

Search for Another Location

Airport or City:

Trip Planner

Search our weather history database for the weather conditions in past years. The results will help you decide how hot, cold, wet, or windy it might be!

Date:

Astronomy

Jan. 02, 2013 Rise Set
Actual Time 7:33 AM MST 4:55 PM MST
Civil Twilight 7:02 AM MST 5:25 PM MST
Nautical Twilight 6:28 AM MST 6:00 PM MST
Astronomical Twilight 5:55 AM MST 6:33 PM MST
Moon 10:32 PM MST (1/2) 10:15 AM MST (1/2)
Length of Visible Light 10h 22m
Length of Day
9h 21m
Waning Gibbous, 74% of the Moon is Illuminated
Jan 2
Waning Gibbous
Jan 4
Last Quarter
Jan 11
New
Jan 18
First Quarter
Jan 26
Full

Hourly Weather History & Observations

Time (MST) Temp. Windchill Dew Point Humidity Pressure Visibility Wind Dir Wind Speed Gust Speed Precip Events Conditions
12:48 AM 5.0 °F - 1.4 °F 85% 30.24 in 3.0 mi Calm Calm - 0.00 in Snow Light Snow
12:53 AM 5.0 °F - 1.0 °F 84% 30.55 in 3.0 mi Calm Calm - 0.00 in Snow Light Snow
1:03 AM 5.0 °F - -0.4 °F 78% 30.24 in 2.5 mi Calm Calm - 0.00 in Snow Light Snow
1:10 AM 3.2 °F - -0.4 °F 85% 30.24 in 3.0 mi Calm Calm - 0.00 in Snow Light Snow
1:18 AM 5.0 °F - -0.4 °F 78% 30.24 in 4.0 mi Calm Calm - 0.00 in Snow Light Snow
1:44 AM 5.0 °F - 1.4 °F 85% 30.24 in 3.0 mi Calm Calm - 0.00 in Snow Light Snow
1:53 AM 5.0 °F - -0.4 °F 78% 30.24 in 4.0 mi Calm Calm - N/A Snow Light Snow
2:53 AM 3.9 °F - -0.0 °F 84% 30.58 in 4.0 mi Calm Calm - 0.00 in Snow Light Snow
3:53 AM 6.1 °F - 1.0 °F 80% 30.54 in 4.0 mi Calm Calm - 0.00 in Snow Light Snow
4:53 AM 6.8 °F - 1.4 °F 79% 30.22 in 3.0 mi Calm Calm - N/A Snow Light Snow
5:53 AM 6.1 °F - 1.0 °F 80% 30.61 in 7.0 mi Calm Calm - 0.00 in   Overcast
6:53 AM 8.1 °F - 3.0 °F 80% 30.59 in 3.0 mi Calm Calm - 0.00 in Snow Light Snow
7:53 AM 9.0 °F - 3.9 °F 80% 30.58 in 1.8 mi Calm Calm - 0.00 in Snow Light Snow
8:13 AM 10.4 °F - 5.0 °F 79% 30.25 in 2.0 mi Calm Calm - 0.00 in Snow Light Snow
8:40 AM 8.6 °F - 5.0 °F 85% 30.25 in 3.0 mi Calm Calm - 0.00 in Snow Light Snow
8:53 AM 9.0 °F - 5.0 °F 84% 30.56 in 2.0 mi Calm Calm - 0.00 in Snow Light Snow
9:11 AM 10.4 °F - 6.8 °F 85% 30.26 in 4.0 mi Calm Calm - 0.00 in   Haze
9:53 AM 10.0 °F - 6.1 °F 84% 30.56 in 3.0 mi Calm Calm - 0.00 in   Overcast
10:46 AM 8.6 °F - 5.0 °F 85% 30.26 in 4.0 mi Calm Calm - N/A   Overcast
10:53 AM 8.1 °F 1.4 °F 3.9 °F 83% 30.55 in 5.0 mi South 3.5 mph - N/A   Overcast
11:17 AM 12.2 °F - 5.0 °F 73% 30.26 in 10.0 mi Calm Calm - N/A   Scattered Clouds
11:53 AM 10.9 °F 4.7 °F 6.1 °F 81% 30.54 in 10.0 mi SSW 3.5 mph - N/A   Mostly Cloudy
12:53 PM 10.9 °F 4.7 °F 6.1 °F 81% 30.52 in 10.0 mi SSW 3.5 mph - N/A   Clear
1:53 PM 10.9 °F 2.9 °F 5.0 °F 77% 30.51 in 10.0 mi SW 4.6 mph - N/A   Clear
2:53 PM 9.0 °F -0.9 °F 3.9 °F 80% 30.53 in 10.0 mi SSW 5.8 mph - N/A   Clear
3:53 PM 6.1 °F - 1.9 °F 83% 30.56 in 10.0 mi Calm Calm - N/A   Clear
4:53 PM -0.0 °F -7.9 °F -4.0 °F 83% 30.60 in 10.0 mi SW 3.5 mph - N/A   Clear
5:53 PM -8.0 °F - -9.9 °F 91% 30.64 in 9.0 mi Calm Calm - N/A   Clear
6:21 PM -7.6 °F - -11.2 °F 84% 30.28 in 1.5 mi Calm Calm - N/A   Clear
6:26 PM -5.8 °F - -11.2 °F 77% 30.28 in 0.8 mi Calm Calm - N/A   Haze
6:32 PM -4.0 °F - -11.2 °F 71% 30.28 in 1.2 mi Calm Calm - N/A   Haze
6:46 PM -5.8 °F - -9.4 °F 84% 30.29 in 0.8 mi Calm Calm - N/A   Haze
6:53 PM -6.0 °F - -13.0 °F 72% 30.64 in 0.8 mi Calm Calm - N/A   Haze
7:10 PM -7.6 °F - -13.0 °F 77% 30.30 in 0.2 mi Calm Calm - N/A   Haze
7:20 PM -5.8 °F - -14.8 °F 65% 30.30 in 1.5 mi Calm Calm - N/A   Haze
7:22 PM -5.8 °F - -14.8 °F 65% 30.30 in 4.0 mi Calm Calm - N/A   Haze
7:37 PM -9.4 °F - -14.8 °F 77% 30.30 in 1.8 mi Calm Calm - N/A   Haze
7:41 PM -9.4 °F - -16.6 °F 71% 30.31 in 0.8 mi Calm Calm - N/A   Haze
7:53 PM -9.0 °F - -17.0 °F 68% 30.67 in 1.0 mi Calm Calm - N/A   Haze
8:10 PM -9.4 °F - -16.6 °F 71% 30.31 in 1.5 mi Calm Calm - N/A   Haze
8:14 PM -9.4 °F - -16.6 °F 71% 30.31 in 3.0 mi Calm Calm - N/A   Haze
8:22 PM -9.4 °F - -18.4 °F 65% 30.32 in 1.8 mi Calm Calm - N/A   Haze
8:26 PM -11.2 °F - -18.4 °F 70% 30.32 in 0.8 mi Calm Calm - N/A   Haze
8:41 PM -9.4 °F - -16.6 °F 71% 30.33 in 1.2 mi Calm Calm - N/A   Haze
8:46 PM -9.4 °F - -16.6 °F 71% 30.33 in 0.8 mi Calm Calm - N/A   Haze
8:53 PM -9.9 °F - -17.0 °F 71% 30.71 in 0.5 mi Calm Calm - N/A   Haze
9:03 PM -9.4 °F - -18.4 °F 65% 30.33 in 0.8 mi Calm Calm - N/A   Haze
9:05 PM -9.4 °F - -18.4 °F 65% 30.33 in 1.2 mi Calm Calm - N/A   Haze
9:08 PM -9.4 °F - -18.4 °F 65% 30.33 in 3.0 mi Calm Calm - N/A   Haze
9:17 PM -11.2 °F - -18.4 °F 70% 30.33 in 6.0 mi Calm Calm - N/A   Haze
9:53 PM -9.0 °F - -17.0 °F 68% 30.70 in 10.0 mi Calm Calm - N/A   Overcast
10:53 PM -13.0 °F - -22.0 °F 64% 30.76 in 10.0 mi Calm Calm - N/A   Overcast
11:42 PM -9.4 °F - -18.4 °F 65% 30.38 in 1.8 mi Calm Calm - N/A   Haze
11:48 PM -11.2 °F - -18.4 °F 70% 30.38 in 0.8 mi Calm Calm - N/A   Haze
11:53 PM -11.0 °F - -18.0 °F 71% 30.74 in 0.5 mi Calm Calm - N/A   Haze